TimePST,TemperatureF,Dew PointF,Humidity,Sea Level PressureIn,VisibilityMPH,Wind Direction,Wind SpeedMPH,Gust SpeedMPH,PrecipitationIn,Events,Conditions,WindDirDegrees,DateUTC
12:53 AM,55.9,27.0,33,30.17,10.0,NNW,17.3,23.0,N/A,,Clear,330,2012-11-11 08:53:00
1:53 AM,55.0,27.0,34,30.18,10.0,NW,10.4,-,N/A,,Clear,320,2012-11-11 09:53:00
2:53 AM,54.0,25.0,33,30.17,10.0,North,6.9,-,N/A,,Clear,350,2012-11-11 10:53:00
3:53 AM,52.0,25.0,35,30.18,10.0,NNE,5.8,-,N/A,,Clear,20,2012-11-11 11:53:00
4:53 AM,48.0,27.0,44,30.21,10.0,East,3.5,-,N/A,,Clear,100,2012-11-11 12:53:00
5:53 AM,48.0,27.0,44,30.22,10.0,ENE,3.5,-,N/A,,Clear,60,2012-11-11 13:53:00
6:53 AM,50.0,25.0,38,30.24,10.0,NE,8.1,-,N/A,,Clear,40,2012-11-11 14:53:00
7:53 AM,54.0,25.0,33,30.27,10.0,Variable,6.9,-,N/A,,Clear,0,2012-11-11 15:53:00
8:53 AM,57.9,23.0,26,30.28,10.0,NE,6.9,-,N/A,,Clear,50,2012-11-11 16:53:00
9:53 AM,61.0,19.9,21,30.29,10.0,East,6.9,-,N/A,,Partly Cloudy,90,2012-11-11 17:53:00
10:53 AM,63.0,19.0,18,30.28,10.0,ESE,9.2,-,N/A,,Partly Cloudy,110,2012-11-11 18:53:00
11:53 AM,66.0,19.0,17,30.26,10.0,East,3.5,-,N/A,,Partly Cloudy,80,2012-11-11 19:53:00
12:53 PM,64.0,28.9,27,30.25,10.0,SW,12.7,-,N/A,,Partly Cloudy,230,2012-11-11 20:53:00
1:53 PM,64.9,27.0,24,30.24,10.0,WSW,8.1,-,N/A,,Partly Cloudy,250,2012-11-11 21:53:00
2:53 PM,66.0,27.0,23,30.23,10.0,WSW,8.1,-,N/A,,Partly Cloudy,250,2012-11-11 22:53:00
3:53 PM,61.0,41.0,48,30.25,10.0,West,15.0,-,N/A,,Partly Cloudy,270,2012-11-11 23:53:00
4:53 PM,59.0,39.9,49,30.25,10.0,West,15.0,-,N/A,,Partly Cloudy,280,2012-11-12 00:53:00
5:53 PM,59.0,37.0,44,30.26,10.0,West,12.7,-,N/A,,Clear,270,2012-11-12 01:53:00
6:53 PM,57.9,37.9,47,30.27,10.0,WSW,8.1,-,N/A,,Clear,250,2012-11-12 02:53:00
7:53 PM,59.0,32.0,36,30.28,10.0,NW,5.8,-,N/A,,Clear,310,2012-11-12 03:53:00
8:53 PM,55.0,37.9,53,30.29,10.0,East,6.9,-,N/A,,Clear,90,2012-11-12 04:53:00
9:53 PM,55.0,34.0,45,30.29,10.0,East,8.1,-,N/A,,Clear,90,2012-11-12 05:53:00
10:53 PM,55.9,32.0,40,30.27,10.0,Variable,5.8,-,N/A,,Clear,0,2012-11-12 06:53:00
11:53 PM,57.0,30.0,36,30.27,10.0,Variable,3.5,-,N/A,,Clear,0,2012-11-12 07:53:00